Regional Weather Roundup
Issued by NWS

Home | Current Version | Previous Version | Graphics & Text | Print | Product List | Glossary On
Versions: 1 2 3 4 5 6 7 8 9 10 11 12 13 14 15 16 17 18 19 20 21 22 23 24 25 26 27 28 29 30 31 32 33 34 35 36 37 38 39 40 41 42 43 44 45 46 47 48 49 50
000
ASUS45 KSLC 211510
RWRUT

UTAH REGIONAL WEATHER ROUNDUP
NATIONAL WEATHER SERVICE SALT LAKE CITY UT
900 AM MDT THU AUG 21 2014

UTZ001>011-023>025-211600-

NORTHERN UTAH

CITY           SKY/WX    TMP DP  RH WIND       PRES   REMARKS
HILL AFB       LGT RAIN  63  54  72 E5        30.11R
LOGAN          CLOUDY    60  55  83 N6        30.12R
OGDEN          PTSUNNY   65  55  70 CALM      30.09R
PROVO AIRPORT  NOT AVBL
SALT LAKE CITY CLOUDY    70  48  45 S6        30.07R
VERNAL         MOSUNNY   62  51  67 CALM      30.18R
WENDOVER       CLOUDY    68  52  56 CALM      30.08R
HEBER CITY     CLOUDY    55  52  88 CALM      30.18S
WEST JORDAN    CLOUDY    66  55  68 S16       30.10R

$$

UTZ012>022-026-027-211600-

SOUTHERN UTAH

CITY           SKY/WX    TMP DP  RH WIND       PRES   REMARKS
BRYCE CANYON   PTSUNNY   54  47  77 NW3       30.32R
CEDAR CITY     PTSUNNY   59  49  69 NE6       30.18R
MILFORD        MOSUNNY   67  47  48 S13       30.14R
MOAB/CYNLANDS  SUNNY     65  56  72 CALM      30.12R
PRICE          MOSUNNY   63  48  58 CALM      30.20R
ST GEORGE      CLOUDY    68  55  64 S5        30.07R

$$

REGIONAL REPORTS     COLORADO/ARIZONA

CITY           SKY/WX    TMP DP  RH WIND       PRES   REMARKS
CRAIG, CO      SUNNY     60  52  74 E9        30.22S
GRAND JUNCTION SUNNY     67  48  50 SE12      30.16R
RIFLE          SUNNY     60  49  66 VRB3      30.21S
MONTROSE       SUNNY     64  45  49 VRB3      30.24S
CORTEZ         SUNNY     63  43  48 CALM      30.22F
PAGE, AZ       MOSUNNY   74  48  39 CALM      30.12S
GRAND CANYON   PTSUNNY   57  52  83 N3        30.27R
KINGMAN        MOSUNNY   73  53  49 S3        30.06R
FLAGSTAFF      PTSUNNY   55  48  77 CALM      30.30R

$$

REGIONAL REPORTS    NEVADA/IDAHO/WYOMING

CITY           SKY/WX    TMP DP  RH WIND       PRES   REMARKS
LAS VEGAS, NV  MOSUNNY   78  48  34 S9        29.94R
ELY            MOSUNNY   60  41  49 S14       30.20R
ELKO           CLOUDY    66  45  46 E5        30.07R
POCATELLO, ID  PTSUNNY   59  58  96 N5        30.10R
BURLEY         CLOUDY    60  57  89 CALM      30.03S
EVANSTON, WY   CLOUDY    53  49  86 S9        30.21S
ROCK SPRINGS   MOSUNNY   55  46  71 SE5       30.21R

$$


USA.gov is the U.S. government's official web portal to all federal, state and local government web resources and services.